2024-173A

Last updated on Fri Oct 25 2024 00:02:04 GMT+0000 (Coordinated Universal Time)

1 61227U 24173A 24298.52485810 .00029772 00000+0 11403-2 0 9990 2 61227 97.4043 11.0230 0011954 163.1983 196.9654 15.26424552 4623
UTC large
Height (km)
Speed (km/s)
/
Latitude / Longitude
Inclination (degrees)
Orbital Period (minutes)
Azimuth
Elevation
Range (km)
Doppler Factor

Next 0 passes for location: London (51.5072 / 0.1276)

Sorry there are no passes over London.
2024-173A